Tracking 25656 objects as of 21-May-2022
HD Live streaming from Space Station
objects crossing your sky now

COSMOS 1275 DEB

Track COSMOS 1275 DEB now!
10-day predictions


NORAD ID: 12767
Int'l Code: 1981-053DL
Perigee: 843.2 km
Apogee: 909.8 km
Inclination: 83.0 °
Period: 102.3 minutes
Semi major axis: 7247 km
RCS: 0.055 m2 (small)
Launch date: June 4, 1981
Source: Commonwealth of Independent States (former USSR) (CIS)
Launch site: PLESETSK MISSILE AND SPACE COMPLEX (PKMTR)

Note: This is SATELLITE DEBRIS
aabbcc
Your satellite tracking list
Your tracking list is empty




NASA's NSSDC Master Catalog

Two Line Element Set (TLE):
1 12767U 81053DL  22141.25982258  .00001012  00000-0  59017-3 0  9990
2 12767  82.9600 201.5340 0045936 191.3758 236.7622 14.07095793 81840
Source of the keplerian elements: AFSPC